Weather History for Lamoni, IA

Change the Weather History Date:

Friday, November 4, 2011

  Actual Average Record
Temperature  
Mean Temperature 42 °F 45 °F  
Max Temperature 56 °F 55 °F 75 °F (1978)
Min Temperature 28 °F 36 °F 3 °F (1991)
Degree Days  
Heating Degree Days 23 20  
Month to date heating degree days 66 76  
Since 1 July heating degree days 542 560  
Cooling Degree Days 0 0  
Month to date cooling degree days 0 0  
Year to date cooling degree days 1144 946  
Moisture  
Dew Point 31 °F    
Average Humidity 60    
Maximum Humidity 85    
Minimum Humidity 35    
Precipitation  
Precipitation 0.00 in 0.13 in 0.53 in (1990)
Month to date precipitation 0.87 0.49  
Year to date precipitation 29.99  
Sea Level Pressure  
Sea Level Pressure 30.23 in    
Wind  
Wind Speed 7 mph (ESE)    
Max Wind Speed 16 mph    
Max Gust Speed 20 mph    
Visibility 10 miles    
Events      
T = Trace of Precipitation, MM = Missing Value Source: NWS Daily Summary

Daily Weather History Graph

Daily Weather History Graph

Search for Another Location

Airport:

Trip Planner

Search our weather history database for the weather conditions in past years. The results will help you decide how hot, cold, wet, or windy it might be!

Date:

Astronomy

Nov. 04, 2011 Rise Set
Actual Time 7:48 AM CDT 6:08 PM CDT
Civil Twilight 7:20 AM CDT 6:37 PM CDT
Nautical Twilight 6:47 AM CDT 7:09 PM CDT
Astronomical Twilight 6:16 AM CDT 7:41 PM CDT
Moon 3:02 PM CDT (11/4) 2:00 AM CDT (11/4)
Length of Visible Light 11h 16m
Length of Day
10h 19m
Waxing Gibbous, 69% of the Moon is Illuminated
Nov 4
Waxing Gibbous
Nov 10
Full
Nov 18
Last Quarter
Nov 25
New
Dec 2
First Quarter

Hourly Weather History & Observations

Time (CDT) Temp. Windchill Dew Point Humidity Pressure Visibility Wind Dir Wind Speed Gust Speed Precip Events Conditions
12:53 AM 35.1 °F 31.0 °F 28.0 °F 76% 30.30 in 10.0 mi North 4.6 mph - N/A   Clear
1:53 AM 33.1 °F 30.0 °F 28.0 °F 82% 30.29 in 10.0 mi NNE 3.5 mph - N/A   Clear
2:53 AM 32.0 °F 27.5 °F 27.0 °F 82% 30.28 in 10.0 mi ENE 4.6 mph - N/A   Clear
3:53 AM 32.0 °F 27.5 °F 27.0 °F 82% 30.28 in 10.0 mi ENE 4.6 mph - N/A   Clear
4:53 AM 33.1 °F 27.7 °F 27.0 °F 78% 30.27 in 10.0 mi East 5.8 mph - N/A   Clear
5:53 AM 30.0 °F - 26.1 °F 85% 30.30 in 10.0 mi Calm Calm - N/A   Clear
6:53 AM 32.0 °F - 26.1 °F 79% 30.30 in 10.0 mi Calm Calm - N/A   Clear
7:53 AM 30.9 °F - 27.0 °F 85% 30.30 in 10.0 mi Calm Calm - N/A   Clear
8:53 AM 34.0 °F - 28.0 °F 79% 30.32 in 10.0 mi Calm Calm - N/A   Clear
9:53 AM 37.0 °F 32.4 °F 30.9 °F 79% 30.32 in 10.0 mi SSE 5.8 mph - N/A   Clear
10:53 AM 42.1 °F 37.7 °F 35.1 °F 76% 30.29 in 10.0 mi ESE 6.9 mph - N/A   Clear
11:53 AM 46.0 °F 41.4 °F 37.0 °F 71% 30.29 in 10.0 mi SE 9.2 mph - N/A   Clear
12:53 PM 48.9 °F - 37.0 °F 64% 30.27 in 10.0 mi SE 8.1 mph - N/A   Clear
2:53 PM 54.0 °F - 33.1 °F 45% 30.20 in 10.0 mi SSE 11.5 mph - N/A   Clear
3:53 PM 55.0 °F - 30.9 °F 40% 30.18 in 10.0 mi SSE 10.4 mph 16.1 mph N/A   Clear
4:53 PM 55.0 °F - 28.0 °F 35% 30.16 in 10.0 mi SSE 12.7 mph - N/A   Clear
5:53 PM 52.0 °F - 28.9 °F 41% 30.15 in 10.0 mi SE 9.2 mph - N/A   Clear
6:53 PM 48.9 °F - 30.9 °F 50% 30.15 in 10.0 mi SE 9.2 mph - N/A   Clear
7:53 PM 46.9 °F - 32.0 °F 56% 30.14 in 10.0 mi SE 6.9 mph - N/A   Clear
8:53 PM 46.0 °F 41.9 °F 34.0 °F 63% 30.13 in 10.0 mi SE 8.1 mph - N/A   Clear
9:53 PM 45.0 °F 41.2 °F 34.0 °F 65% 30.13 in 10.0 mi SE 6.9 mph - N/A   Clear
10:53 PM 44.1 °F 39.0 °F 33.1 °F 65% 30.13 in 10.0 mi SE 9.2 mph - N/A   Clear
11:53 PM 42.1 °F 37.1 °F 33.1 °F 70% 30.12 in 10.0 mi SE 8.1 mph - N/A   Clear